TimeEST,TemperatureF,Dew PointF,Humidity,Sea Level PressureIn,VisibilityMPH,Wind Direction,Wind SpeedMPH,Gust SpeedMPH,PrecipitationIn,Events,Conditions,WindDirDegrees,DateUTC
12:06 AM,30.2,28.4,93,29.98,2.0,SSW,10.4,16.1,0.00,Snow,Light Snow,210,2013-01-06 05:06:00
12:19 AM,30.2,30.2,100,29.97,1.2,SSW,8.1,-,0.00,Snow,Light Snow,210,2013-01-06 05:19:00
12:26 AM,30.2,30.2,100,29.97,1.2,SSW,8.1,-,0.00,Snow,Light Snow,200,2013-01-06 05:26:00
12:43 AM,30.2,30.2,100,29.96,3.0,SSW,8.1,-,0.00,Snow,Light Snow,210,2013-01-06 05:43:00
12:53 AM,30.9,30.0,96,29.99,3.0,SSW,9.2,-,0.00,Snow,Light Snow,210,2013-01-06 05:53:00
1:53 AM,32.0,28.9,88,29.97,7.0,SW,10.4,-,0.00,,Overcast,220,2013-01-06 06:53:00
2:09 AM,32.0,28.4,87,29.93,7.0,SW,9.2,-,N/A,,Overcast,220,2013-01-06 07:09:00
2:53 AM,32.0,28.9,88,29.96,7.0,SSW,8.1,-,N/A,,Overcast,210,2013-01-06 07:53:00
3:53 AM,32.0,28.9,88,29.95,7.0,SSW,10.4,-,N/A,,Overcast,210,2013-01-06 08:53:00
4:53 AM,33.1,28.9,85,29.92,8.0,SW,9.2,-,N/A,,Overcast,220,2013-01-06 09:53:00
5:53 AM,33.1,28.9,85,29.91,8.0,SSW,8.1,-,N/A,,Overcast,210,2013-01-06 10:53:00
6:53 AM,33.1,30.0,89,29.91,5.0,SSW,6.9,-,0.00,Snow,Light Snow,210,2013-01-06 11:53:00
7:53 AM,33.1,30.0,89,29.91,7.0,SSW,8.1,-,0.00,,Overcast,210,2013-01-06 12:53:00
8:53 AM,33.1,30.0,89,29.91,5.0,SW,8.1,-,N/A,,Overcast,220,2013-01-06 13:53:00
9:53 AM,34.0,30.0,85,29.92,4.0,SSW,8.1,-,0.00,Snow,Light Snow,200,2013-01-06 14:53:00
10:42 AM,33.8,30.2,87,29.89,2.5,SSW,5.8,-,0.00,Snow,Light Snow,200,2013-01-06 15:42:00
10:53 AM,33.1,30.9,92,29.93,2.5,SSW,5.8,-,0.00,Snow,Light Snow,200,2013-01-06 15:53:00
11:53 AM,34.0,30.9,89,29.91,2.5,SSW,6.9,-,0.01,Snow,Light Snow,210,2013-01-06 16:53:00
12:33 PM,33.8,30.2,87,29.88,1.8,SW,8.1,-,0.00,Snow,Light Snow,230,2013-01-06 17:33:00
12:53 PM,34.0,32.0,92,29.91,1.2,SW,8.1,-,0.00,Snow,Light Snow,230,2013-01-06 17:53:00
1:04 PM,33.8,32.0,93,29.87,1.5,WSW,5.8,-,0.01,Snow,Light Snow,240,2013-01-06 18:04:00
1:33 PM,33.8,32.0,93,29.87,2.0,SW,6.9,-,0.01,Snow,Light Snow,230,2013-01-06 18:33:00
1:53 PM,34.0,30.9,89,29.91,2.5,WSW,8.1,-,0.01,Snow,Light Snow,240,2013-01-06 18:53:00
2:31 PM,33.8,30.2,87,29.89,2.0,West,8.1,-,0.00,Rain-Snow,Light Ice Pellets,280,2013-01-06 19:31:00
2:39 PM,33.8,30.2,87,29.90,2.0,WNW,13.8,21.9,0.00,Snow,Light Snow,300,2013-01-06 19:39:00
2:48 PM,33.8,28.4,81,29.90,2.5,WNW,13.8,-,0.00,Snow,Light Snow,300,2013-01-06 19:48:00
2:53 PM,33.1,28.9,85,29.94,3.0,NW,13.8,-,0.00,Snow,Light Snow,310,2013-01-06 19:53:00
3:53 PM,32.0,28.9,88,29.99,4.0,WNW,15.0,-,0.00,Snow,Light Snow,290,2013-01-06 20:53:00
4:53 PM,32.0,25.0,75,30.02,7.0,NW,12.7,-,0.00,,Overcast,310,2013-01-06 21:53:00
5:53 PM,32.0,25.0,75,30.06,10.0,WNW,11.5,-,N/A,,Overcast,290,2013-01-06 22:53:00
6:53 PM,32.0,25.0,75,30.11,9.0,NW,10.4,-,N/A,,Overcast,310,2013-01-06 23:53:00
7:53 PM,30.9,25.0,79,30.15,8.0,WNW,9.2,-,N/A,,Overcast,300,2013-01-07 00:53:00
8:53 PM,30.9,26.1,82,30.18,8.0,WNW,10.4,-,N/A,,Overcast,300,2013-01-07 01:53:00
9:53 PM,30.9,26.1,82,30.20,8.0,NW,9.2,-,N/A,,Overcast,310,2013-01-07 02:53:00
10:53 PM,30.9,26.1,82,30.23,8.0,NW,6.9,-,N/A,,Overcast,310,2013-01-07 03:53:00
11:53 PM,30.9,25.0,79,30.26,9.0,NNW,5.8,-,N/A,,Overcast,330,2013-01-07 04:53:00